Location: Allen Lane School
(37.8198°N, 89.7382°W)
Time: 13:48:11
(UTC+00:00)

Cosmos 44 - Pass Details

Date: 12 July 2022
Orbit: 595 x 766 km, 65.1° (Epoch: 18 August)

Event Time Altitude Azimuth Distance (km) Brightness Sun altitude
Exits shadow 04:51:37 33° 276° (W) 1,080 4.4 -27.8°
Maximum altitude 04:52:37 37° 305° (NW) 988 4.4 -27.9°
Drops below altitude 10° 04:56:48 10° 14° (NNE) 1,987 6.3 -28.1°
Sets 04:59:10 0° 23° (NNE) 2,876 7.2 -28.3°
